Location: Croydon
(51.3762°N, 0.0982°W)
Time: 03:49:30
(UTC+00:00)

Altair - Pass Details

Date: 19 November 2019
Orbit: 1502 x 1682 km, 47.2° (Epoch: 12 December)

Event Time Altitude Azimuth Distance (km) Brightness Sun altitude
Rises 10:12:02 0° 286° (WNW) 4,673 9.7 16.3°
Reaches altitude 10° 10:16:01 10° 271° (W) 3,710 9.3 16.5°
Maximum altitude 10:22:19 21° 228° (SW) 2,993 9.4 16.9°
Drops below altitude 10° 10:28:45 10° 185° (S) 3,791 11.0 17.2°
Sets 10:32:55 0° 170° (S) 4,805 11.8 17.4°
